Glasgow, United Kingdom

2:51 AM BST on March 31, 2017 (GMT +0100)
Glasgow

Weather History for EGPF - October, 2012

Change the Weather History Date:

Thursday, October 4, 2012

  Actual Average Record
Temperature  
Mean Temperature 44 °F -  
Max Temperature 55 °F 52 °F 64 °F (2013)
Min Temperature 32 °F 41 °F 32 °F (2012)
Degree Days  
Heating Degree Days 22    
Moisture  
Dew Point 41 °F    
Average Humidity 88    
Maximum Humidity 100    
Minimum Humidity 72    
Precipitation  
Precipitation 0.00 in - - ()
Sea Level Pressure  
Sea Level Pressure 29.58 in    
Wind  
Wind Speed 4 mph ()    
Max Wind Speed 15 mph    
Max Gust Speed -    
Visibility 6.2 miles    
Events Fog , Rain , Thunderstorm    
Averages and records for this station are not official NWS values.
T = Trace of Precipitation, MM = Missing Value Source: Averaged Metar Reports

Daily Weather History Graph

Daily Weather History Graph

Search for Another Location

Airport or City:

Trip Planner

Search our weather history database for the weather conditions in past years. The results will help you decide how hot, cold, wet, or windy it might be!

Date:

Astronomy

Oct. 04, 2012 Rise Set
Actual Time 7:27 AM BST 6:44 PM BST
Civil Twilight 6:50 AM BST 7:21 PM BST
Nautical Twilight 6:07 AM BST 8:04 PM BST
Astronomical Twilight 5:22 AM BST 8:48 PM BST
Moon 8:18 PM BST (10/4) 12:21 PM BST (10/4)
Length of Visible Light 12h 30m
Length of Day
11h 17m
Waning Gibbous, 83% of the Moon is Illuminated
Oct 4
Waning Gibbous
Oct 8
Last Quarter
Oct 15
New
Oct 22
First Quarter
Oct 29
Full

Hourly Weather History & Observations

Time (BST) Temp. Windchill Dew Point Humidity Pressure Visibility Wind Dir Wind Speed Gust Speed Precip Events Conditions
12:20 AM 39.2 °F 35.9 °F 37.4 °F 93% 29.53 in - SW 4.6 mph - N/A   Clear
12:50 AM 39.2 °F 37.0 °F 37.4 °F 93% 29.53 in - Variable 3.5 mph - N/A   Clear
1:20 AM 37.4 °F 34.9 °F 35.6 °F 93% 29.53 in - WSW 3.5 mph - N/A   Clear
1:50 AM 39.2 °F - 37.4 °F 93% 29.56 in - SW 2.3 mph - N/A   Clear
2:20 AM 39.2 °F - 37.4 °F 93% 29.56 in 6.2 mi West 2.3 mph - N/A   Unknown
2:50 AM 35.6 °F - 35.6 °F 100% 29.56 in 6.2 mi NW 2.3 mph - N/A   Unknown
3:20 AM 35.6 °F - 33.8 °F 93% 29.56 in 6.2 mi Calm Calm - N/A   Partly Cloudy
3:50 AM 33.8 °F - 33.8 °F 100% 29.56 in 6.2 mi South 2.3 mph - N/A   Partly Cloudy
4:20 AM 33.8 °F 30.8 °F 33.8 °F 100% 29.56 in - SSW 3.5 mph - N/A   Mist
4:50 AM 33.8 °F - 33.8 °F 100% 29.56 in - Calm Calm - N/A   Mist
5:20 AM 35.6 °F 32.8 °F 35.6 °F 100% 29.56 in - NNE 3.5 mph - N/A   Mist
5:50 AM 35.6 °F - 33.8 °F 93% 29.56 in 5.6 mi SE 2.3 mph - N/A Fog Fog
6:20 AM 33.8 °F - 33.8 °F 100% 29.59 in 6.2 mi North 2.3 mph - N/A Fog Patches of Fog
6:50 AM 33.8 °F - 33.8 °F 100% 29.59 in 6.2 mi Calm Calm - N/A Fog Patches of Fog
7:20 AM 32.0 °F - 32.0 °F 100% 29.59 in 6.2 mi Calm Calm - N/A   Partly Cloudy
7:50 AM 33.8 °F - 32.0 °F 93% 29.59 in 6.2 mi Calm Calm - N/A   Partly Cloudy
8:20 AM 35.6 °F - 33.8 °F 93% 29.59 in 6.2 mi Calm Calm - N/A   Partly Cloudy
8:50 AM 37.4 °F - 35.6 °F 93% 29.62 in 6.2 mi Variable 2.3 mph - N/A Fog Scattered Clouds
9:20 AM 39.2 °F - 39.2 °F 100% 29.62 in 6.2 mi NNE 2.3 mph - N/A Fog Mostly Cloudy
9:50 AM 41.0 °F 39.0 °F 41.0 °F 100% 29.62 in 6.2 mi Variable 3.5 mph - N/A Fog Mostly Cloudy
10:20 AM 44.6 °F 43.1 °F 42.8 °F 93% 29.62 in 6.2 mi Variable 3.5 mph - N/A Fog Mostly Cloudy
10:50 AM 46.4 °F 45.2 °F 44.6 °F 93% 29.62 in 6.2 mi Variable 3.5 mph - N/A Fog Mostly Cloudy
11:20 AM 48.2 °F - 44.6 °F 87% 29.62 in 6.2 mi Variable 2.3 mph - N/A   Mostly Cloudy
11:50 AM 50.0 °F - 46.4 °F 87% 29.62 in 6.2 mi Variable 2.3 mph - N/A   Mostly Cloudy
12:20 PM 50.0 °F - 46.4 °F 87% 29.62 in 6.2 mi WSW 6.9 mph - N/A   Mostly Cloudy
12:50 PM 51.8 °F - 46.4 °F 82% 29.62 in 6.2 mi WSW 8.1 mph - N/A   Mostly Cloudy
1:20 PM 50.0 °F - 44.6 °F 82% 29.65 in 6.2 mi West 5.8 mph - N/A Rain Light Rain Showers
1:50 PM 51.8 °F - 46.4 °F 82% 29.62 in 6.2 mi SW 4.6 mph - N/A   Scattered Clouds
2:20 PM 53.6 °F - 46.4 °F 77% 29.62 in 6.2 mi SW 12.7 mph - N/A   Mostly Cloudy
2:50 PM 53.6 °F - 46.4 °F 77% 29.62 in 6.2 mi SW 15.0 mph - N/A   Mostly Cloudy
3:20 PM 53.6 °F - 46.4 °F 77% 29.62 in 6.2 mi SW 13.8 mph - N/A   Scattered Clouds
3:50 PM 55.4 °F - 46.4 °F 72% 29.59 in 6.2 mi SSW 15.0 mph - N/A   Scattered Clouds
4:20 PM 53.6 °F - 46.4 °F 77% 29.59 in 6.2 mi SSW 13.8 mph - N/A   Scattered Clouds
4:50 PM 51.8 °F - 44.6 °F 76% 29.59 in 6.2 mi SW 15.0 mph - N/A   Scattered Clouds
5:20 PM 50.0 °F - 44.6 °F 82% 29.62 in 6.2 mi SW 12.7 mph - N/A   Scattered Clouds
5:50 PM 50.0 °F - 46.4 °F 87% 29.59 in 6.2 mi SSW 10.4 mph - N/A   Scattered Clouds
6:20 PM 50.0 °F - 46.4 °F 87% 29.59 in 6.2 mi SW 10.4 mph - N/A   Scattered Clouds
6:50 PM 50.0 °F - 44.6 °F 82% 29.59 in 6.2 mi SSW 6.9 mph - N/A   Partly Cloudy
7:20 PM 50.0 °F - 42.8 °F 76% 29.59 in 6.2 mi South 9.2 mph - N/A   Partly Cloudy
7:50 PM 50.0 °F - 42.8 °F 76% 29.59 in 6.2 mi South 8.1 mph - N/A   Partly Cloudy
8:20 PM 48.2 °F - 42.8 °F 82% 29.56 in 6.2 mi SE 5.8 mph - N/A Thunderstorm Scattered Clouds
8:50 PM 50.0 °F - 42.8 °F 76% 29.56 in 6.2 mi SE 8.1 mph - N/A   Scattered Clouds
9:20 PM 48.2 °F - 42.8 °F 82% 29.56 in 6.2 mi South 5.8 mph - N/A   Mostly Cloudy
9:50 PM 48.2 °F - 42.8 °F 82% 29.56 in 6.2 mi SSW 8.1 mph - N/A   Mostly Cloudy
10:20 PM 48.2 °F - 42.8 °F 82% 29.53 in 6.2 mi South 6.9 mph - N/A Rain Light Rain
10:50 PM 46.4 °F 44.3 °F 42.8 °F 87% 29.53 in 6.2 mi SE 4.6 mph - N/A Rain Light Rain
11:20 PM 46.4 °F 45.2 °F 42.8 °F 87% 29.53 in 6.2 mi Variable 3.5 mph - N/A   Mostly Cloudy
11:50 PM 46.4 °F 44.3 °F 41.0 °F 81% 29.50 in 6.2 mi South 4.6 mph - N/A   Mostly Cloudy